[[[{"header":{"parameterUnit":"kt","parameterCategory":2,"dx":1,"dy":1,"la1":30.253999710083008,"la2":30.299108505249023,"lo1":-89.0895004272461,"lo2":-89.04439544677734,"nx":28,"ny":28,"refTime":"2022-10-28T21:00:00:Z","depth":0,"parameterNumber":1,"parameterNumberName":"U-component_of_WINDS"},"data":[6.018,6.0267,6.032,6.0442,6.0509,6.06,6.0649,6.0716,6.0782,6.0894,6.0966,6.1023,6.1105,6.1201,6.1279,6.1302,6.1331,6.1327,6.1354,6.1334,6.1334,6.1334,6.1319,6.1333,6.1333,6.1368,6.1368,6.1369,6.0164,6.0233,6.0313,6.0425,6.0493,6.053,6.062,6.0673,6.0752,6.0833,6.0907,6.1007,6.1092,6.1176,6.1265,6.1303,6.1323,6.1324,6.1321,6.1333,6.1314,6.1297,6.1306,6.1306,6.1306,6.1306,6.1306,6.1306,6.0151,6.0201,6.0299,6.0386,6.0456,6.0529,6.0584,6.0655,6.073,6.0832,6.0875,6.0963,6.105,6.1179,6.1233,6.1301,6.1309,6.1323,6.1327,6.1329,6.1327,6.1271,6.1318,6.1318,6.1318,6.1318,6.1318,0,6.0156,6.0197,6.0276,6.0371,6.0437,6.0514,6.0592,6.0627,6.0724,6.0781,6.0869,6.0926,6.1039,6.1124,6.1216,6.1269,6.1308,6.1316,6.1327,6.1308,6.1281,6.1297,6.1264,6.1314,6.1314,6.1314,6.1314,6.1314,6.0147,6.0198,6.0324,6.0373,6.0429,6.0505,6.056,6.0642,6.0696,6.0802,6.0839,6.0926,6.1,6.1126,6.1202,6.1284,6.1303,6.1318,6.1315,6.1297,6.1305,6.1301,6.1307,6.1316,6.1316,6.1316,6.1316,0,6.0136,6.022,6.0315,6.0434,6.0465,6.0513,6.0613,6.0663,6.0725,6.0802,6.0825,6.0919,6.1001,6.1075,6.1181,6.1217,6.1294,6.131,6.1266,6.1273,6.1294,6.1291,6.1348,6.136,6.1346,6.1346,6.1346,0,6.0161,6.0223,6.0344,6.0394,6.0467,6.0548,6.0616,6.0676,6.0754,6.0815,6.0874,6.0929,6.1016,6.1082,6.1134,6.121,6.123,6.1261,6.1275,6.1256,6.1252,6.1283,6.1282,6.1301,6.1301,6.1301,6.13,0,6.0136,6.0273,6.0356,6.04,6.053,6.0566,6.0621,6.0708,6.076,6.0838,6.0872,6.0955,6.1001,6.1064,6.1131,6.1127,6.1225,6.1233,6.1257,6.1256,6.1274,6.1272,6.1305,6.13,6.13,6.13,6.13,0,6.0168,6.025,6.0357,6.0468,6.05,6.0552,6.0643,6.0705,6.0792,6.083,6.0891,6.0938,6.101,6.1013,6.1113,6.1089,6.113,6.1167,6.117,6.118,6.1181,6.119,6.1214,6.1219,6.1191,6.119,6.1189,0,6.0118,6.0247,6.0319,6.0416,6.0487,6.0551,6.061,6.0685,6.0741,6.0806,6.0866,6.0938,6.0956,6.0989,6.1028,6.1092,6.1123,6.109,6.1179,6.1181,6.1156,6.1179,6.1164,6.1201,6.1178,6.1179,6.118,0,6.0089,6.025,6.0262,6.0316,6.0431,6.0488,6.0555,6.0646,6.0686,6.0762,6.082,6.0921,6.094,6.0992,6.1037,6.1074,6.1104,6.1088,6.1091,6.1089,6.1178,6.1165,6.1171,6.1126,6.1128,6.1129,6.1172,0,6.0121,6.0195,6.0232,6.0347,6.0403,6.0467,6.055,6.0598,6.0639,6.0696,6.078,6.0857,6.0945,6.097,6.1008,6.107,6.107,6.1087,6.1094,6.1109,6.1125,6.1131,6.1064,6.1065,6.1066,6.1066,0,0,6.0052,6.0161,6.0236,6.0306,6.0358,6.0422,6.0484,6.054,6.0653,6.0686,6.0692,6.0845,6.0906,6.0999,6.101,6.1044,6.1062,6.1053,6.1101,6.1105,6.1108,6.1124,6.113,6.1067,6.1067,6.1067,6.1068,0,6.0082,6.015,6.0211,6.0275,6.0373,6.0431,6.0446,6.0551,6.059,6.0674,6.0722,6.0781,6.0898,6.0958,6.1003,6.1045,6.1075,6.1065,6.1062,6.1104,6.1107,6.111,6.1125,6.113,6.1069,6.1069,6.1069,0,6.0069,6.015,6.0188,6.0311,6.0374,6.0442,6.0472,6.0541,6.0592,6.0652,6.0733,6.0785,6.087,6.0947,6.0984,6.0989,6.1083,6.1066,6.1064,6.107,6.1114,6.1118,6.112,6.1081,6.1081,6.1081,0,0,6.0082,6.0152,6.0262,6.0323,6.036,6.0447,6.049,6.0535,6.0613,6.0643,6.0711,6.0783,6.0853,6.0896,6.0965,6.1037,6.1061,6.1064,6.1064,6.1063,6.1067,6.1112,6.1115,6.108,6.108,6.108,0,0,6.0087,6.0219,6.0248,6.033,6.0404,6.0513,6.0546,6.0582,6.0653,6.0654,6.0728,6.075,6.0823,6.0871,6.085,6.0968,6.0974,6.0981,6.0934,6.0934,6.0934,6.092,6.0887,0,0,0,0,0,6.016,6.0204,6.0228,6.0254,6.0406,6.05,6.052,6.0585,6.059,6.0615,6.0677,6.0707,6.0876,6.0859,6.0881,6.0904,6.1067,6.107,6.1072,6.103,6.1029,6.1029,0,0,0,0,0,0,6.0171,6.0202,6.0227,6.0337,6.0372,6.05,6.0521,6.054,6.0589,6.0594,6.0694,6.071,6.0765,6.0851,6.087,6.0891,6.0881,6.1068,6.107,6.1072,6.1029,6.1029,6.1029,0,0,0,0,0,6.0179,6.0205,6.0432,6.0337,6.0367,6.0465,6.052,6.0536,6.0574,6.0671,6.0688,6.0619,6.0764,6.0784,6.0863,6.088,6.0868,6.0875,6.1069,6.1071,6.1072,6.1029,0,0,0,0,0,0,6.0186,6.0219,6.044,6.0451,6.0326,6.0459,6.0483,6.0532,6.0649,6.0667,6.0599,6.0601,6.0763,6.0779,6.0795,6.0874,6.0857,6.0864,6.0869,6.1071,6.1072,6.1073,0,0,0,0,0,0,6.0206,6.0228,6.0445,6.0427,6.0438,6.0453,6.0474,6.0549,6.0649,6.0571,6.0577,6.0598,6.0738,6.0776,6.0788,6.0902,6.0849,6.0856,6.0861,6.0863,6.1072,6.1072,0,0,0,0,0,0,6.0216,6.0236,6.0425,6.0433,6.0441,6.0575,6.052,6.067,6.0638,6.0564,6.0637,6.0636,6.0734,6.0748,6.0784,6.0892,6.09,6.0849,6.0854,6.0857,6.0859,0,0,0,0,0,0,0,6.0225,6.008,6.0372,6.0437,6.0444,6.0557,6.056,6.0564,6.0638,6.0638,6.0637,6.0637,6.081,6.0818,6.0825,6.0884,0,0,6.0849,6.0852,0,0,0,0,0,0,0,0,6.0073,6.0078,6.0372,6.0375,6.0377,6.0558,6.056,6.0563,6.0638,6.0638,6.0637,6.0637,6.0812,6.0818,6.0825,0,0,0,0,0,0,0,0,0,0,0,0,0,0,0,6.0373,6.0375,0,6.0558,6.056,6.0562,6.0638,6.0638,6.0637,6.0637,6.0814,6.0819,6.0824,0,0,0,0,0,0,0,0,0,0,0,0,0,0,0,0,0,0,0,0,0,0,0,0,0,0,0,0,0,0,0,0,0,0,0,0,0,0,0,0,0,0,0,0,0,0,0,0,0,0,0,0,0,0,0,0,0,0,0,0,0,0,0,0,0,0,0,0,0]}],[{"header":{"parameterUnit":"kt","parameterCategory":2,"dx":1,"dy":1,"la1":30.253999710083008,"la2":30.299108505249023,"lo1":-89.0895004272461,"lo2":-89.04439544677734,"nx":28,"ny":28,"refTime":"2022-10-28T21:00:00:Z","depth":0,"parameterNumber":2,"parameterNumberName":"V-component_of_WINDS"},"data":[0.7845,0.7841,0.7884,0.7897,0.7938,0.7953,0.7972,0.8001,0.8034,0.8055,0.8074,0.8115,0.8164,0.8195,0.8216,0.8234,0.8238,0.8203,0.823,0.8349,0.8368,0.8387,0.8392,0.8204,0.8204,0.81,0.8099,0.8098,0.792,0.7961,0.7982,0.8032,0.8049,0.8108,0.8151,0.8161,0.8173,0.8214,0.8237,0.8259,0.8281,0.8344,0.8371,0.8366,0.8395,0.837,0.8371,0.8377,0.8506,0.8511,0.8346,0.8346,0.8346,0.8346,0.8347,0.8347,0.8069,0.8065,0.8122,0.8146,0.8183,0.8215,0.8219,0.8272,0.8292,0.8331,0.8379,0.8393,0.8442,0.8499,0.8528,0.8538,0.8573,0.8559,0.8556,0.8551,0.8538,0.8677,0.8545,0.8546,0.8546,0.8547,0.8547,0,0.8191,0.8228,0.8254,0.829,0.8311,0.8344,0.8382,0.8385,0.848,0.8492,0.8514,0.8533,0.8571,0.8594,0.8631,0.8666,0.8728,0.874,0.8731,0.8706,0.8678,0.869,0.8896,0.8744,0.8746,0.8747,0.8748,0.8749,0.8342,0.8334,0.8418,0.8429,0.8462,0.8479,0.8499,0.8584,0.86,0.8658,0.8649,0.8676,0.8702,0.8727,0.879,0.8817,0.8848,0.8784,0.8853,0.8828,0.8844,0.8843,0.884,0.8769,0.8766,0.8764,0.8763,0,0.8421,0.8498,0.8501,0.8586,0.8607,0.8593,0.8665,0.8665,0.8719,0.8725,0.8732,0.8816,0.8835,0.891,0.8948,0.8985,0.8956,0.8986,0.8938,0.8948,0.8896,0.8899,0.8723,0.8703,0.89,0.8898,0.8897,0,0.8579,0.8567,0.8681,0.868,0.8667,0.8756,0.874,0.8787,0.8835,0.8842,0.8927,0.8931,0.9027,0.904,0.9096,0.9087,0.9095,0.9122,0.9137,0.9114,0.911,0.9123,0.9131,0.9175,0.9176,0.9177,0.9178,0,0.8696,0.8745,0.8743,0.8767,0.8858,0.8854,0.8891,0.8948,0.8967,0.9003,0.9015,0.905,0.9069,0.9092,0.9165,0.9208,0.9156,0.9231,0.9184,0.9182,0.9169,0.9169,0.8995,0.9179,0.9179,0.9179,0.9179,0,0.8836,0.8875,0.8862,0.894,0.895,0.8948,0.8991,0.9008,0.9062,0.9099,0.9128,0.9195,0.9197,0.9264,0.9266,0.9301,0.9313,0.9341,0.9339,0.9344,0.9417,0.9306,0.9135,0.9119,0.9346,0.9347,0.9348,0,0.8946,0.8956,0.9036,0.9022,0.9037,0.9134,0.9134,0.9181,0.9231,0.9249,0.9304,0.9325,0.9392,0.9409,0.94,0.9457,0.941,0.9465,0.9484,0.9484,0.9465,0.9309,0.9264,0.9164,0.9367,0.9365,0.9364,0,0.9042,0.9159,0.9151,0.9182,0.9263,0.9278,0.9278,0.932,0.9328,0.9374,0.9374,0.9407,0.9457,0.9486,0.9545,0.9532,0.9444,0.9589,0.9592,0.9558,0.9385,0.9342,0.9325,0.9486,0.9484,0.9482,0.9379,0,0.9232,0.925,0.9234,0.9303,0.9328,0.9326,0.9413,0.9426,0.9481,0.9536,0.954,0.9602,0.9644,0.9647,0.9702,0.9649,0.967,0.9725,0.9797,0.9695,0.9662,0.965,0.9837,0.984,0.9842,0.9844,0,0,0.9317,0.9346,0.9437,0.9444,0.947,0.9574,0.9564,0.9601,0.9674,0.9689,0.973,0.9784,0.9833,0.9829,0.9804,0.9822,0.9819,0.9853,0.9743,0.9732,0.9721,0.9685,0.9671,0.9848,0.9849,0.985,0.985,0,0.9405,0.9458,0.945,0.9493,0.9562,0.9623,0.962,0.9706,0.9741,0.975,0.9834,0.9848,0.9892,0.993,0.9956,0.9856,0.9918,0.9862,0.9778,0.9763,0.9748,0.9736,0.9697,0.9682,0.9856,0.9855,0.9855,0,0.9514,0.958,0.9587,0.9656,0.9702,0.9717,0.9814,0.9828,0.9839,0.9953,0.996,1.0006,1.0067,1.0054,1.0052,1.0089,1.0003,1.0048,1.0036,1.0038,1.0027,1.0009,0.9993,1.0199,1.02,1.0201,0,0,0.9578,0.9599,0.9698,0.9682,0.9705,0.9797,0.9815,0.9875,0.993,0.9952,1.0014,1.0062,1.0088,1.0104,1.0133,1.0107,1.0126,1.0086,1.007,1.0057,1.005,1.0036,1.0018,1.0204,1.0204,1.0204,0,0,0.961,0.9725,0.9774,0.9768,0.9818,0.9914,0.99,0.9961,0.9998,1.0008,1.0108,1.0125,1.0116,1.0158,1.019,1.016,1.0229,1.0224,1.0133,1.0114,1.0098,1.0088,1.0298,0,0,0,0,0,0.9748,0.9711,0.9754,0.9767,0.9856,0.989,0.9902,0.9985,1.0032,1.0018,1.0079,1.0147,1.0195,1.0226,1.0236,1.0199,1.0245,1.0237,1.0231,1.0108,1.0087,1.0069,0,0,0,0,0,0,0.9753,0.9768,0.9755,0.9849,0.987,0.9892,0.999,1.0011,1.0036,1.0048,1.0133,1.015,1.022,1.0227,1.0234,1.0198,1.0296,1.0242,1.0236,1.023,1.0101,1.0084,1.0069,0,0,0,0,0,0.9758,0.9771,0.9893,0.985,0.9868,0.997,0.9992,1.0011,1.0031,1.0127,1.0146,1.0092,1.0217,1.0229,1.0232,1.0192,1.0292,1.0294,1.0238,1.0233,1.0229,1.0093,0,0,0,0,0,0,0.9762,0.9787,0.9899,0.9907,0.9872,0.997,0.9989,1.001,1.011,1.0128,1.0091,1.01,1.0214,1.0224,1.0232,1.0186,1.0288,1.0291,1.0292,1.0234,1.023,1.0227,0,0,0,0,0,0,0.9781,0.9793,0.9903,0.9926,0.9938,0.997,0.9987,1.0002,1.011,1.0068,1.0079,1.0094,1.0201,1.022,1.0227,1.0248,1.0285,1.0288,1.0289,1.029,1.0231,1.0228,0,0,0,0,0,0,0.9788,0.9799,0.9924,0.9933,0.9944,1.0046,0.9985,1.0072,1.0131,1.0062,1.0138,1.0142,1.0195,1.0204,1.0223,1.024,1.0246,1.0285,1.0287,1.0288,1.0289,0,0,0,0,0,0,0,0.9793,0.9702,0.9848,0.9939,0.9949,0.9986,0.9988,0.999,1.0132,1.0135,1.0138,1.014,1.0272,1.0275,1.0277,1.0234,0,0,1.0285,1.0286,0,0,0,0,0,0,0,0,0.97,0.9702,0.9849,0.985,0.9852,0.9986,0.9988,0.999,1.0132,1.0135,1.0137,1.0139,1.0273,1.0275,1.0277,0,0,0,0,0,0,0,0,0,0,0,0,0,0,0,0.9849,0.985,0,0.9986,0.9988,0.999,1.0132,1.0134,1.0136,1.0138,1.0273,1.0275,1.0277,0,0,0,0,0,0,0,0,0,0,0,0,0,0,0,0,0,0,0,0,0,0,0,0,0,0,0,0,0,0,0,0,0,0,0,0,0,0,0,0,0,0,0,0,0,0,0,0,0,0,0,0,0,0,0,0,0,0,0,0,0,0,0,0,0,0,0,0,0]}]]]